Weather History for KTOI - March, 2014

Change the Weather History Date:

Monday, March 24, 2014

  Actual Average Record
Temperature  
Mean Temperature 56 °F 58 °F  
Max Temperature 69 °F 72 °F 85 °F (2007)
Min Temperature 43 °F 45 °F 30 °F (2008)
Degree Days  
Heating Degree Days 9 7  
Month to date heating degree days 224 235  
Since 1 July heating degree days 2164 2154  
Cooling Degree Days 0 1  
Month to date cooling degree days 1 4  
Year to date cooling degree days 12 9  
Growing Degree Days 6 (Base 50)    
Moisture  
Dew Point 40 °F    
Average Humidity 59    
Maximum Humidity 83    
Minimum Humidity 34    
Precipitation  
Precipitation 0.00 in 0.23 in 0.52 in (2001)
Month to date precipitation 2.98 4.43  
Year to date precipitation 12.04 13.56  
Snow  
Snow 0.00 in - - ()
Month to date snowfall 0.0  
Since 1 July snowfall 0.3  
Snow Depth 0.00 in    
Sea Level Pressure  
Sea Level Pressure 30.07 in    
Wind  
Wind Speed 5 mph (NE)    
Max Wind Speed 13 mph    
Max Gust Speed 19 mph    
Visibility 10 miles    
Events      
T = Trace of Precipitation, MM = Missing Value Source: NWS Daily Summary

Daily Weather History Graph

Daily Weather History Graph

Search for Another Location

Airport or City:

Trip Planner

Search our weather history database for the weather conditions in past years. The results will help you decide how hot, cold, wet, or windy it might be!

Date:

Astronomy

Mar. 24, 2014 Rise Set
Actual Time 6:42 AM CDT 6:58 PM CDT
Civil Twilight 6:18 AM CDT 7:22 PM CDT
Nautical Twilight 5:49 AM CDT 7:51 PM CDT
Astronomical Twilight 5:21 AM CDT 8:20 PM CDT
Moon 1:52 AM CDT (3/24) 12:42 PM CDT (3/24)
Length of Visible Light 13h 04m
Length of Day
12h 15m
Last Quarter, 43% of the Moon is Illuminated
Mar 24
Last Quarter
Mar 30
New
Apr 7
First Quarter
Apr 15
Full
Apr 22
Last Quarter

Hourly Weather History & Observations

Time (CDT) Temp. Windchill Dew Point Humidity Pressure Visibility Wind Dir Wind Speed Gust Speed Precip Events Conditions
12:53 AM 52.0 °F - 44.1 °F 74% 30.16 in 10.0 mi North 10.4 mph - N/A   Scattered Clouds
1:53 AM 52.0 °F - 39.0 °F 61% 30.14 in 10.0 mi NNE 10.4 mph - 0.00 in   Clear
2:53 AM 51.1 °F - 36.0 °F 56% 30.14 in 10.0 mi NNE 8.1 mph - N/A   Clear
3:53 AM 50.0 °F - 34.0 °F 54% 30.12 in 10.0 mi North 9.2 mph - N/A   Mostly Cloudy
4:53 AM 46.9 °F - 35.1 °F 63% 30.12 in 10.0 mi NE 6.9 mph - N/A   Clear
5:53 AM 44.1 °F 40.8 °F 35.1 °F 71% 30.14 in 10.0 mi NNE 5.8 mph - N/A   Clear
6:53 AM 43.0 °F 40.3 °F 34.0 °F 71% 30.16 in 10.0 mi North 4.6 mph - N/A   Clear
7:53 AM 46.0 °F 41.9 °F 34.0 °F 63% 30.18 in 10.0 mi NNE 8.1 mph - N/A   Clear
8:53 AM 50.0 °F - 33.1 °F 52% 30.18 in 10.0 mi NE 10.4 mph - N/A   Clear
9:53 AM 55.0 °F - 36.0 °F 49% 30.17 in 10.0 mi NE 10.4 mph - N/A   Clear
10:53 AM 59.0 °F - 37.9 °F 46% 30.15 in 10.0 mi East 8.1 mph - N/A   Clear
11:53 AM 63.0 °F - 39.0 °F 41% 30.13 in 10.0 mi ENE 11.5 mph - N/A   Clear
12:53 PM 64.9 °F - 41.0 °F 42% 30.10 in 10.0 mi ENE 5.8 mph - N/A   Clear
1:53 PM 66.0 °F - 39.9 °F 38% 30.06 in 10.0 mi West 5.8 mph - N/A   Clear
2:53 PM 66.9 °F - 39.0 °F 36% 30.01 in 10.0 mi South 3.5 mph - N/A   Mostly Cloudy
3:53 PM 68.0 °F - 39.0 °F 35% 29.98 in 10.0 mi Calm Calm - N/A   Clear
4:53 PM 66.9 °F - 37.9 °F 34% 29.97 in 10.0 mi SSW 3.5 mph - N/A   Overcast
5:53 PM 66.0 °F - 41.0 °F 40% 29.96 in 10.0 mi North - - N/A   Overcast
6:53 PM 63.0 °F - 43.0 °F 48% 29.96 in 10.0 mi SE 4.6 mph - N/A   Overcast
7:53 PM 61.0 °F - 44.1 °F 54% 29.96 in 10.0 mi Calm Calm - N/A   Overcast
8:53 PM 57.9 °F - 48.9 °F 72% 29.97 in 10.0 mi SSW 3.5 mph - N/A   Overcast
9:53 PM 60.1 °F - 46.9 °F 62% 29.97 in 10.0 mi Calm Calm - N/A   Overcast
10:53 PM 54.0 °F - 48.0 °F 80% 29.97 in 10.0 mi Calm Calm - N/A   Partly Cloudy
11:53 PM 53.1 °F - 46.9 °F 80% 29.98 in 10.0 mi Calm Calm - N/A   Clear